Location: General Nathan Twining Observatory
(34.5931°N, 106.8201°W)
Time: 11:59:44
(UTC-07:00)

Cosmos 2327 Rocket - Pass Details

Date: 20 September 2017
Orbit: 944 x 1008 km, 83.0° (Epoch: 13 December)

Event Time Altitude Azimuth Distance (km) Brightness Sun altitude
Rises 20:24:11 0° 177° (S) 3,641 7.3 -16.7°
Reaches altitude 10° 20:26:42 10° 174° (S) 2,689 6.6 -17.2°
Maximum altitude 20:32:47 67° 93° (E) 1,027 4.4 -18.4°
Drops below altitude 10° 20:38:49 10° 12° (NNE) 2,674 6.8 -19.6°
Sets 20:41:19 0° 10° (N) 3,619 7.6 -20.1°
